TimePDT,TemperatureF,Dew PointF,Humidity,Sea Level PressureIn,VisibilityMPH,Wind Direction,Wind SpeedMPH,Gust SpeedMPH,PrecipitationIn,Events,Conditions,WindDirDegrees,DateUTC
12:54 AM,86.0,52.0,31,29.80,10.0,Calm,Calm,-,N/A,,Clear,0,2013-07-02 07:54:00
1:54 AM,84.9,52.0,32,29.81,10.0,North,4.6,-,N/A,,Clear,360,2013-07-02 08:54:00
2:54 AM,84.9,54.0,34,29.80,10.0,East,4.6,-,N/A,,Clear,100,2013-07-02 09:54:00
3:54 AM,82.9,57.0,41,29.81,10.0,ESE,4.6,-,N/A,,Clear,120,2013-07-02 10:54:00
4:54 AM,84.0,55.9,38,29.81,10.0,ESE,4.6,-,N/A,,Clear,110,2013-07-02 11:54:00
5:54 AM,84.0,55.0,37,29.81,10.0,East,4.6,-,N/A,,Clear,90,2013-07-02 12:54:00
7:54 AM,91.9,53.1,27,29.84,10.0,East,3.5,-,N/A,,Clear,100,2013-07-02 14:54:00
8:54 AM,93.9,53.1,25,29.84,10.0,SE,4.6,-,N/A,,Clear,130,2013-07-02 15:54:00
9:54 AM,99.0,50.0,19,29.84,10.0,Calm,Calm,-,N/A,,Clear,0,2013-07-02 16:54:00
10:54 AM,100.0,46.9,16,29.85,10.0,WNW,9.2,-,N/A,,Clear,290,2013-07-02 17:54:00
11:54 AM,104.0,39.0,11,29.84,10.0,NW,9.2,-,N/A,,Clear,310,2013-07-02 18:54:00
12:54 PM,105.1,50.0,16,29.84,10.0,NW,9.2,-,N/A,,Clear,310,2013-07-02 19:54:00
1:54 PM,107.1,44.1,12,29.82,10.0,WNW,12.7,-,N/A,,Clear,290,2013-07-02 20:54:00
2:54 PM,107.1,48.9,14,29.81,10.0,NNW,10.4,-,N/A,,Clear,340,2013-07-02 21:54:00
3:54 PM,109.0,43.0,11,29.79,10.0,NNW,9.2,17.3,N/A,,Clear,330,2013-07-02 22:54:00
4:54 PM,109.9,43.0,11,29.77,10.0,North,12.7,-,N/A,,Clear,360,2013-07-02 23:54:00
5:54 PM,108.0,46.9,13,29.77,10.0,WNW,16.1,23.0,N/A,,Clear,300,2013-07-03 00:54:00
6:54 PM,105.1,50.0,16,29.78,10.0,NW,11.5,-,N/A,,Clear,320,2013-07-03 01:54:00
7:54 PM,99.0,55.9,24,29.79,10.0,NW,11.5,-,N/A,,Clear,320,2013-07-03 02:54:00
8:54 PM,95.0,50.0,22,29.81,10.0,NNW,11.5,-,N/A,,Clear,340,2013-07-03 03:54:00
9:54 PM,93.0,48.9,22,29.83,10.0,NNW,10.4,-,N/A,,Clear,330,2013-07-03 04:54:00
10:54 PM,90.0,48.0,24,29.83,10.0,North,8.1,-,N/A,,Clear,10,2013-07-03 05:54:00
11:54 PM,90.0,45.0,21,29.83,10.0,NNE,8.1,-,N/A,,Clear,30,2013-07-03 06:54:00